Terminal Aerodrome Forecast
Issued by NWS

Home | Current Version | Previous Version | Text Only | Print | Product List | Glossary On
Versions: 1 2 3 4 5 6 7 8 9 10 11 12 13 14 15 16 17 18 19 20 21 22 23 24 25 26 27 28 29 30 31 32 33 34
862
FTAK31 PANC 041450 AAA
TAFADQ
TAF AMD
PADQ 041450Z 0415/0512 VRB03KT P6SM VCSH OVC100
      TEMPO 0415/0418 -SHRA BKN025
     FM041800 VRB04KT P6SM -SHRA BKN025
     FM050300 04007KT P6SM -SHRA BKN020 BKN060=

USA.gov is the U.S. government's official web portal to all federal, state and local government web resources and services.